Wind_Speed
29 28 27 27 27 28 28 28 28 28 28 28 28 27 27 26 23 26 27 27 27 24 23 25 24 22 23 25 22 21 29 37 31 29 29 24 24 21 15 18 18 24 22 13 21
29 29 28 28 29 28 30 30 29 29 28 28 28 28 28 29 25 27 28 26 27 27 27 26 24 24 26 26 26 29 38 38 27 27 28 25 26 21 16 20 21 25 19 29 22
29 29 30 30 30 32 32 31 29 27 27 28 28 29 29 29 24 30 24 22 22 23 26 26 24 24 23 24 26 29 45 31 30 26 25 29 30 18 20 23 23 25 23 23 29
30 31 30 30 30 30 31 31 30 29 29 29 29 28 27 25 10 22 21 24 23 21 19 20 18 20 25 27 27 36 35 34 33 30 31 28 27 32 24 22 22 20 22 20 24
31 31 31 32 31 30 29 28 29 28 28 28 27 27 26 24 19 30 29 26 26 27 26 26 23 19 24 25 27 33 33 34 33 34 34 30 32 33 38 28 29 31 32 29 26
31 31 33 32 31 29 26 26 26 25 25 24 24 23 21 19 19 26 26 26 25 25 22 20 21 18 24 24 26 28 32 32 34 36 32 33 32 33 43 32 33 33 32 34 39
32 31 29 30 29 27 25 24 21 20 19 19 18 18 17 16 20 18 22 23 23 25 26 23 16 20 21 24 22 28 34 34 36 32 30 29 39 46 40 34 36 35 37 37 37
32 30 27 27 27 25 22 20 18 16 14 13 13 14 13 14 12 9 11 14 12 16 19 24 25 29 23 24 29 31 26 32 31 30 34 30 48 32 31 31 32 35 35 35 33
28 26 26 25 25 21 18 16 12 11 11 11 13 9 3 12 12 17 17 17 16 16 16 15 19 27 24 21 26 31 35 37 38 27 29 32 45 36 30 29 33 33 31 31 32
25 25 23 19 18 15 12 10 9 9 9 11 5 9 11 16 16 11 12 16 16 15 17 15 15 17 21 21 35 28 29 33 35 28 28 34 31 28 25 26 29 33 28 24 28
21 20 18 13 12 10 6 7 8 10 10 8 12 11 15 10 3 9 11 13 14 10 15 12 20 19 20 24 32 32 33 38 36 28 28 18 22 39 28 26 29 25 23 23 24
17 14 13 11 8 6 6 7 6 8 13 13 11 8 6 1 6 6 11 10 11 11 13 16 23 23 23 23 29 32 36 40 37 30 30 24 36 35 34 27 31 25 32 26 24
14 13 10 8 7 6 6 5 5 7 10 8 6 6 3 6 8 9 12 12 13 13 13 18 22 24 28 28 26 29 34 36 36 33 28 26 38 37 39 38 35 38 20 26 27
13 11 9 7 7 6 4 3 4 5 4 7 3 4 4 8 5 7 9 16 15 18 18 22 19 17 21 31 31 38 28 28 30 30 27 26 26 36 36 35 32 38 33 27 25
13 11 8 6 5 3 2 3 4 4 3 7 6 8 7 7 13 5 17 16 19 21 19 30 24 27 29 28 23 36 28 28 25 25 26 31 27 38 28 38 42 36 37 29 30
13 10 8 6 5 3 2 3 3 3 3 3 2 5 10 13 10 14 14 15 17 20 20 28 22 25 31 30 29 27 25 26 30 26 20 37 27 44 32 33 22 25 18 28 27
13 10 8 7 5 4 2 2 1 6 3 3 4 11 14 13 12 11 17 18 16 20 21 22 24 23 26 27 26 31 26 16 8 15 17 16 21 41 18 28 20 20 25 26 23
12 10 9 6 4 3 3 5 7 2 1 5 8 13 12 8 9 13 20 18 18 17 23 24 22 16 12 14 16 20 20 21 21 13 17 23 18 49 31 30 21 27 34 28 21
13 12 9 6 4 5 6 6 1 1 7 8 11 7 4 6 16 16 15 17 13 14 16 23 25 22 25 23 19 13 17 19 27 33 20 16 25 16 13 26 19 27 27 21 17
15 13 9 7 6 7 8 4 3 6 7 4 4 4 9 14 15 16 16 16 17 18 19 21 26 24 26 24 23 23 16 12 12 4 13 19 26 8 19 17 27 21 17 17 15
15 13 9 7 8 9 4 6 3 7 7 2 4 10 11 15 15 18 20 21 19 16 15 17 21 28 24 24 24 16 19 13 16 13 8 11 18 18 20 17 16 26 21 16 12
16 12 10 8 7 6 5 3 5 3 7 4 5 6 9 13 17 19 21 20 18 16 16 18 23 26 25 24 14 17 15 9 5 8 15 23 26 4 14 18 7 17 14 10 12
15 14 10 9 8 8 3 4 1 1 3 3 5 8 8 12 17 12 15 16 13 15 12 15 10 11 18 12 8 5 16 10 15 10 13 4 4 7 12 16 17 14 7 3 5
17 10 10 9 6 7 1 2 2 6 3 3 5 7 8 13 13 13 16 19 21 21 17 17 24 23 20 27 17 14 18 15 8 8 16 14 21 18 8 24 12 10 7 7 6
14 10 9 4 4 4 2 1 2 1 3 3 2 4 10 11 15 10 17 20 19 17 21 15 16 19 23 25 24 21 21 19 17 17 16 20 19 23 17 9 3 7 9 6 8
12 11 10 7 4 3 3 2 3 2 4 4 2 8 8 11 13 22 22 20 22 15 20 19 7 16 17 19 22 23 21 21 22 20 19 17 20 14 16 5 5 8 6 7 9
11 10 9 5 4 4 1 4 4 2 1 5 7 12 12 15 19 20 19 16 18 16 16 17 15 18 15 17 23 22 16 18 19 18 19 15 18 14 16 8 3 7 9 11 12
Wind_Direction
291 291 292 294 296 296 296 296 296 296 296 296 294 293 291 289 289 287 281 280 281 270 267 268 265 256 247 241 231 234 244 249 248 250 258 261 263 257 238 240 237 226 213 199 243
289 290 291 292 294 294 297 297 297 295 294 292 291 291 292 292 297 287 283 279 273 271 269 266 262 260 250 248 238 228 236 241 246 255 260 260 267 244 241 251 230 233 231 214 251
294 290 291 295 298 300 301 300 299 297 297 297 297 297 298 301 308 290 284 278 277 270 265 263 258 248 249 245 239 240 241 247 248 251 258 266 264 268 252 241 234 236 241 241 242
290 293 294 297 298 299 299 301 302 302 301 299 297 295 295 298 295 279 276 275 272 266 261 261 259 251 244 246 245 248 250 253 254 257 260 265 270 251 249 247 242 239 237 247 254
286 288 291 294 296 297 298 299 299 298 298 295 293 293 292 291 286 268 278 276 273 268 264 258 257 259 253 253 255 249 255 255 256 257 259 267 259 251 253 249 246 250 251 242 239
283 283 287 290 294 296 298 299 300 299 298 298 298 298 296 297 276 272 279 280 273 267 266 257 251 248 261 258 255 259 258 259 257 256 258 256 262 252 244 250 243 244 244 246 237
282 283 286 290 293 295 297 298 300 302 301 300 300 300 300 291 270 282 284 278 277 267 261 252 249 252 259 263 269 264 262 261 255 254 258 254 260 251 261 261 253 249 248 245 242
278 281 285 290 292 296 299 300 304 306 309 312 314 312 312 306 302 303 282 286 280 284 272 259 254 243 239 257 261 265 264 264 260 256 254 249 259 255 259 259 259 254 247 246 251
275 276 281 288 290 294 295 300 303 303 310 316 318 313 338 321 309 311 302 292 290 287 288 279 264 250 254 260 268 256 261 260 267 256 259 248 256 266 259 258 251 254 251 246 247
270 274 278 281 283 285 283 286 298 302 307 316 325 329 306 306 311 327 325 320 313 287 289 271 285 262 248 242 248 257 253 261 262 264 262 268 271 273 253 256 263 242 242 241 233
265 269 272 274 274 273 285 296 283 277 304 303 287 271 274 308 2 12 351 343 346 306 282 271 266 264 261 254 258 264 266 270 265 268 281 284 266 259 263 266 249 250 235 236 235
253 253 259 261 250 261 275 282 287 275 295 296 270 271 290 338 7 345 347 347 333 318 303 281 265 268 269 265 261 263 266 263 270 269 269 283 267 259 262 269 251 250 243 233 236
238 242 238 229 240 258 273 285 292 298 289 259 272 238 268 303 296 286 335 341 323 309 298 284 282 275 263 263 264 263 262 270 272 274 271 268 268 262 260 267 263 239 257 238 239
235 223 212 224 246 254 252 279 295 303 241 192 214 247 313 332 307 275 312 319 309 295 290 279 286 276 276 268 264 266 267 276 273 273 268 259 265 258 257 257 256 242 236 249 237
217 206 212 226 243 245 273 295 292 274 229 165 226 245 302 329 302 253 305 313 299 285 282 273 279 278 276 273 274 270 276 266 267 275 280 261 248 261 259 255 256 243 246 226 219
203 207 215 213 211 221 257 275 252 177 181 154 187 307 322 318 289 308 308 318 303 294 281 279 280 277 274 275 268 270 273 269 261 270 263 253 255 267 259 255 243 237 216 195 196
201 207 204 197 207 216 238 218 256 259 190 177 222 308 311 315 310 308 324 328 317 314 297 287 286 291 284 283 269 257 250 257 265 242 253 256 251 246 251 250 241 215 196 188 191
198 192 186 190 219 228 197 120 250 107 207 288 299 306 302 294 322 321 323 318 317 306 291 295 298 294 326 321 298 284 265 269 240 250 260 265 250 252 253 252 242 213 193 187 186
185 181 178 189 191 176 171 218 40 183 258 301 325 303 292 299 314 319 316 313 319 323 316 306 295 292 284 304 297 290 266 278 265 257 281 263 275 264 251 233 208 168 179 175 176
180 171 169 166 162 150 114 196 258 254 283 311 313 303 308 309 310 311 309 305 306 303 295 292 298 287 287 286 282 268 289 296 239 231 238 246 264 216 211 189 183 191 175 177 189
176 169 157 152 150 143 122 215 228 287 311 319 293 297 306 309 305 304 300 298 300 304 302 298 299 293 289 270 273 271 285 264 271 258 254 269 244 215 214 220 197 181 187 180 187
172 166 159 163 161 127 210 224 296 271 327 329 330 324 310 311 310 304 300 300 301 306 300 298 295 281 281 274 270 278 285 291 232 331 306 267 265 287 284 225 147 162 159 190 206
170 157 165 155 120 190 240 285 273 17 291 303 289 308 310 314 313 309 305 298 304 288 286 299 275 313 304 279 245 262 322 314 323 287 269 271 298 332 262 197 197 181 184 246 278
164 154 167 174 162 198 207 211 210 312 313 318 307 323 323 318 311 298 312 323 317 308 282 288 280 274 277 296 300 290 302 298 297 284 305 299 324 321 219 195 157 149 228 258 295
174 166 174 181 181 190 172 150 46 315 340 337 349 345 332 327 322 309 315 311 314 313 288 297 261 259 272 289 301 297 291 286 272 276 281 297 308 314 344 69 129 301 279 293 301
177 159 174 182 181 144 100 142 164 247 297 190 284 314 327 317 318 309 308 310 306 315 311 312 269 286 280 290 300 301 299 284 274 269 272 286 293 304 302 282 230 277 289 285 283
176 167 167 181 150 143 273 199 210 249 111 243 323 333 330 311 300 307 308 303 292 294 310 308 310 315 302 308 310 298 303 306 273 273 283 288 288 301 302 309 315 264 265 291 298
Height
3114 3112 3110 3109 3108 3107 3106 3105 3104 3103 3102 3100 3100 3100 3099 3099 3102 3099 3098 3099 3099 3100 3099 3099 3101 3102 3102 3103 3107 3111 3109 3103 3107 3109 3108 3111 3110 3107 3108 3110 3114 3111 3114 3118 3114
3109 3108 3106 3105 3104 3102 3101 3100 3099 3098 3097 3096 3095 3094 3093 3093 3096 3092 3092 3092 3092 3093 3094 3094 3095 3097 3096 3098 3100 3102 3097 3095 3103 3105 3105 3106 3107 3103 3105 3106 3108 3107 3108 3112 3109
3103 3102 3100 3099 3097 3096 3094 3094 3093 3092 3091 3090 3089 3087 3087 3087 3092 3081 3084 3086 3087 3087 3088 3088 3089 3091 3093 3095 3097 3095 3084 3095 3097 3100 3101 3100 3098 3101 3097 3099 3103 3104 3104 3106 3106
3098 3097 3095 3093 3092 3091 3090 3089 3087 3086 3085 3085 3084 3082 3082 3084 3091 3077 3080 3081 3082 3082 3083 3084 3084 3085 3086 3089 3092 3091 3090 3091 3092 3093 3092 3093 3094 3091 3093 3096 3100 3101 3101 3102 3102
3093 3092 3091 3089 3087 3086 3085 3084 3082 3081 3081 3080 3079 3078 3078 3079 3079 3074 3075 3076 3075 3076 3077 3079 3080 3082 3081 3084 3087 3084 3086 3087 3087 3087 3087 3087 3085 3085 3082 3089 3092 3092 3093 3093 3094
3087 3086 3085 3084 3083 3082 3081 3079 3078 3077 3075 3074 3073 3072 3073 3074 3072 3069 3069 3068 3070 3069 3071 3072 3073 3077 3078 3080 3081 3082 3081 3079 3080 3080 3080 3081 3080 3082 3075 3083 3082 3084 3085 3086 3087
3082 3081 3080 3080 3078 3077 3076 3074 3072 3072 3071 3070 3069 3068 3067 3068 3066 3066 3065 3064 3064 3063 3064 3066 3069 3071 3074 3074 3076 3075 3071 3072 3070 3073 3072 3076 3069 3069 3074 3076 3074 3075 3077 3078 3079
3076 3077 3075 3074 3073 3072 3070 3068 3068 3067 3066 3066 3065 3063 3063 3063 3063 3061 3060 3059 3059 3058 3057 3060 3063 3062 3064 3067 3067 3068 3068 3063 3062 3066 3065 3071 3053 3064 3068 3068 3065 3067 3068 3070 3071
3070 3070 3070 3069 3069 3068 3067 3065 3065 3065 3064 3063 3063 3061 3061 3060 3059 3058 3056 3056 3055 3055 3054 3056 3057 3056 3060 3063 3061 3060 3061 3058 3056 3059 3058 3059 3052 3058 3060 3061 3060 3061 3061 3063 3065
3065 3066 3065 3064 3065 3064 3064 3063 3062 3063 3063 3061 3060 3062 3059 3059 3058 3055 3054 3053 3051 3051 3053 3055 3053 3052 3056 3058 3049 3055 3054 3051 3049 3052 3052 3047 3046 3050 3053 3053 3054 3054 3056 3058 3059
3060 3061 3061 3061 3061 3061 3062 3062 3063 3062 3060 3059 3058 3058 3055 3056 3056 3058 3054 3053 3051 3051 3051 3053 3054 3052 3051 3052 3050 3051 3051 3046 3043 3046 3045 3042 3042 3043 3046 3048 3048 3049 3050 3052 3055
3055 3056 3057 3058 3057 3058 3059 3058 3058 3059 3056 3055 3054 3054 3054 3054 3055 3056 3054 3055 3051 3050 3051 3050 3047 3049 3049 3048 3047 3045 3043 3038 3039 3041 3042 3039 3037 3037 3036 3036 3040 3040 3044 3046 3050
3052 3051 3053 3053 3055 3056 3056 3056 3055 3054 3053 3050 3051 3052 3053 3053 3053 3053 3053 3050 3048 3047 3047 3045 3045 3046 3045 3042 3041 3039 3035 3036 3036 3036 3035 3036 3030 3032 3031 3032 3030 3030 3033 3039 3043
3048 3048 3049 3051 3054 3053 3053 3053 3053 3052 3051 3053 3050 3052 3053 3051 3053 3049 3050 3048 3047 3045 3043 3040 3042 3042 3039 3035 3038 3030 3034 3032 3030 3030 3028 3032 3019 3022 3025 3027 3028 3030 3029 3033 3037
3045 3045 3046 3047 3049 3050 3051 3050 3050 3050 3046 3053 3050 3049 3049 3052 3049 3049 3046 3044 3041 3040 3043 3032 3037 3036 3033 3031 3031 3023 3028 3027 3026 3025 3024 3019 3019 3003 3017 3016 3016 3019 3021 3027 3028
3042 3042 3043 3044 3045 3046 3047 3047 3048 3050 3044 3047 3046 3046 3047 3046 3045 3043 3043 3041 3038 3034 3034 3029 3031 3031 3027 3026 3025 3024 3023 3022 3021 3022 3016 3006 3016 2995 3009 3008 3010 3012 3014 3017 3018
3039 3040 3040 3041 3043 3043 3043 3044 3048 3044 3046 3046 3044 3044 3043 3042 3041 3040 3038 3036 3035 3031 3028 3026 3025 3024 3022 3016 3018 3017 3016 3014 3018 3013 3000 3010 3010 2992 2998 3001 3004 3008 3009 3011 3013
3036 3037 3038 3040 3040 3040 3040 3043 3045 3043 3045 3042 3040 3039 3039 3038 3038 3037 3035 3033 3033 3030 3025 3022 3020 3021 3018 3017 3014 3010 3008 3007 3002 3003 2997 3000 2993 2979 2994 2996 3000 3002 3000 3006 3011
3033 3035 3036 3038 3038 3037 3039 3042 3042 3041 3041 3039 3036 3036 3037 3037 3036 3034 3033 3032 3030 3030 3029 3023 3019 3017 3015 3014 3013 3007 3006 3004 3002 3000 2997 2997 2987 2980 2986 2989 2993 2995 2997 3003 3008
3030 3032 3034 3036 3036 3035 3037 3039 3040 3036 3035 3035 3035 3035 3034 3035 3034 3033 3031 3030 3029 3028 3025 3022 3017 3016 3012 3012 3009 3007 3005 3002 2996 2993 2992 2986 2983 2979 2984 2987 2986 2994 2998 3001 3004
3028 3029 3032 3033 3034 3036 3036 3037 3036 3032 3032 3033 3032 3031 3032 3032 3032 3030 3028 3027 3027 3023 3022 3020 3018 3012 3009 3005 3004 3002 3001 3001 2999 2995 2986 2982 2977 2977 2981 2982 2989 2988 2996 2999 3002
3024 3026 3030 3031 3034 3034 3036 3032 3031 3031 3029 3029 3028 3029 3030 3029 3028 3027 3025 3023 3022 3020 3019 3018 3013 3008 3004 2999 3000 3001 2996 2998 2998 2993 2990 2985 2980 2981 2981 2983 2984 2986 2993 2997 2998
3021 3023 3028 3029 3029 3030 3031 3029 3028 3028 3030 3028 3028 3028 3027 3027 3026 3023 3022 3020 3018 3015 3015 3014 3009 3007 2997 2995 2997 2997 2997 2997 2995 2994 2992 2988 2979 2978 2981 2984 2987 2988 2994 2996 2997
3019 3022 3025 3026 3027 3027 3026 3027 3027 3024 3025 3025 3027 3026 3026 3024 3024 3021 3020 3017 3015 3013 3012 3010 3007 3007 3000 2996 2998 2998 2997 2995 2994 2995 2988 2985 2980 2980 2978 2980 2982 2989 2993 2991 2992
3016 3018 3022 3023 3024 3024 3024 3023 3024 3026 3025 3025 3027 3026 3025 3022 3021 3019 3017 3014 3013 3011 3006 3004 3001 3002 2998 2995 2993 2992 2991 2991 2990 2991 2988 2986 2984 2983 2980 2979 2986 2984 2989 2989 2991
3015 3016 3020 3019 3021 3022 3021 3022 3025 3025 3023 3024 3025 3023 3023 3022 3021 3016 3014 3010 3008 3007 3004 3001 2998 2998 2996 2994 2991 2988 2987 2985 2985 2985 2985 2984 2983 2985 2985 2987 2986 2987 2986 2987 2989
3013 3014 3017 3018 3019 3022 3021 3021 3022 3020 3022 3024 3023 3023 3022 3020 3015 3012 3009 3005 3002 3002 3003 3001 2999 2999 2994 2992 2989 2985 2984 2981 2980 2981 2982 2982 2983 2983 2983 2981 2979 2980 2980 2982 2984